Skip Page Navigation
NASA JPL Caltech
NASA Logo - Jet Propulsion Laboratory + View the NASA Portal
+ Near-Earth Object (NEO) Program
Search JPL
JPL Home Earth Solar System Stars & Galaxies Technology
JPL Solar System Dynamics
BODIES ORBITS EPHEMERIDES TOOLS PHYSICAL DATA DISCOVERY FAQ SITE MAP
JPL Small-Body Database Browser
Search: [ help ]  
11555 (1993 CR1)
Classification: Main-belt Asteroid          SPK-ID: 2011555
Ephemeris | Orbit Diagram | Orbital Elements | Physical Parameters | Discovery Circumstances | Close-Approach Data ]

[ show orbit diagram ]
Orbital Elements at Epoch 2457000.5 (2014-Dec-09.0) TDB
Reference: JPL 10 (heliocentric ecliptic J2000)
 Element Value Uncertainty (1-sigma)   Units 
e .1035253818896638 7.0113e-08  
a 2.671820228886421 2.6875e-08 AU
q 2.395219019350425 1.9087e-07 AU
i 13.66735685786264 7.6878e-06 deg
node 149.1150366513629 3.0055e-05 deg
peri 24.05526662773537 4.8694e-05 deg
M 343.3512077164855 4.1692e-05 deg
tp 2457074.271652442104
(2015-Feb-20.77165244)
0.00018542 JED
period 1595.178462611659
4.37
2.4068e-05
6.589e-08
d
yr
n .2256800780839283 3.4051e-09 deg/d
Q 2.948421438422416 2.9658e-08 AU
  Orbit Determination Parameters
   # obs. used (total)      799  
   data-arc span      7927 days (21.70 yr)  
   first obs. used      1993-02-15  
   last obs. used      2014-10-30  
   planetary ephem.      DE431  
   SB-pert. ephem.      SB431-BIG16  
   condition code      0  
   fit RMS      .51478  
   data source      ORB  
   producer      Otto Matic  
   solution date      2014-Nov-10 13:15:13  

Additional Information
 Earth MOID = 1.40903 AU 
 T_jup = 3.333 
[ show covariance matrix ]

Ephemeris | Orbit Diagram | Orbital Elements | Physical Parameters | Discovery Circumstances | Close-Approach Data ]

Physical Parameter Table
Parameter Symbol Value Units Sigma Reference Notes
absolute magnitude H 13.4 mag n/a MPO286868  

11555 (1993 CR1)          Discovered 1993-Feb-15 by Ueda, S., Kaneda, H. at Kushiro (399)
Reference: 19990928/Numbers.arcLast Updated: 2004-04-19

[ show close-approach data ]
Alternate Designations
 1993 CR1 = 1997 AP6 
Ephemeris | Orbit Diagram | Orbital Elements | Physical Parameters | Discovery Circumstances | Close-Approach Data ]
ABOUT SSD CREDITS/AWARDS PRIVACY/COPYRIGHT GLOSSARY LINKS
FirstGov 2014-Nov-26 13:53 UT
(server date/time)  
NASA Home Page
Site Manager:   Donald K. Yeomans
Webmaster  Alan B. Chamberlin